This demonstration page uses our WeatherBlox Daily Observations layout. Learn more.

Left ArrowRight Arrow

39.08367, -84.50855

Hourly Observations for April 29, 2017

Temp ( °F °C ) Dew Point ( °F °C ) Humidity (%) Winds ( mph kmh ) Pressure ( in mb ) Visibility ( mi km ) Precip ( " mm )
12:06 am 00:06 Mostly Cloudy with Nearby Thunderstorms 63 17.2 63 17.2 100 100 E 3 6 29.91 1013 10 16 N/A
12:15 am 00:15 Mostly Cloudy with Light Rain 63 17.2 63 17.2 100 100 WNW 6 9 29.91 1013 9 14 0.01 0.25
12:30 am 00:30 Mostly Cloudy with Light Rain 63 17 63 17 100 100 E 5 7 29.91 1013 9 14 N/A
12:39 am 00:39 Mostly Cloudy with Nearby Thunderstorms 63 17.2 63 17.2 100 100 N 5 7 29.91 1013 10 16 0.01 0.25
12:53 am 00:53 Mostly Cloudy with Nearby Thunderstorms 62 16.7 62 16.7 100 100 ESE 7 11 29.92 1013 10 16 0.01 0.25
1:06 am 01:06 Mostly Cloudy with Light Rain 63 17.2 63 17.2 100 100 N 10 17 29.91 1013 10 16 N/A
1:17 am 01:17 Mostly Cloudy with Nearby Thunderstorms 63 17.2 62 16.7 97 97 VRB 6 9 29.91 1013 10 16 N/A
1:53 am 01:53 Mostly Cloudy with Nearby Thunderstorms 64 17.8 63 17.2 96 96 SE 22 35 29.84 1010 7 11 0.03 0.76
2:12 am 02:12 Mostly Cloudy with Thunderstorms 64 18 63 17 94 94 WSW 12 19 29.91 1013 10 16 N/A
2:53 am 02:53 Cloudy with Nearby Thunderstorms 63 17.2 63 17.2 100 100 N N/A 29.96 1014 6 10 0.05 1.27
3:01 am 03:01 Cloudy with Thunderstorms 63 17.2 63 17.2 100 100 NE 3 6 29.91 1013 6 10 N/A
3:08 am 03:08 Cloudy with Thunderstorms 63 17 63 17 100 100 ENE 7 11 29.91 1013 6 10 N/A
3:40 am 03:40 Cloudy with Thunderstorms 64 18 64 18 100 100 SSW 3 6 29.94 1014 6 10 N/A
3:53 am 03:53 Cloudy with Nearby Thunderstorms 63 17.2 63 17.2 100 100 S 5 7 29.98 1015 5 8 0.04 1.02
4:30 am 04:30 Cloudy with Thunderstorms 66 19 64 18 94 94 S 8 13 29.94 1014 5 8 N/A
4:53 am 04:53 Cloudy with Nearby Thunderstorms 66 18.9 65 18.3 96 96 S 8 13 29.93 1014 7 11 0.12 3.05
5:11 am 05:11 Cloudy with Light Rain 66 18.9 65 18.3 96 96 S 9 15 29.91 1013 10 16 0.01 0.25
5:53 am 05:53 Mostly Cloudy with Light Rain 65 18.3 64 17.8 97 97 S 16 26 29.94 1014 10 16 0.02 0.51
6:26 am 06:26 Mostly Cloudy 65 18.3 64 17.8 97 97 N N/A 29.97 1015 10 16 N/A
6:45 am 06:45 Mostly Cloudy with Light Rain 64 17.8 64 17.8 100 100 N N/A 29.94 1014 10 16 N/A
6:53 am 06:53 Mostly Cloudy with Light Rain 63 17.2 63 17.2 100 100 SSE 3 6 29.97 1015 10 16 N/A
7:05 am 07:05 Mostly Cloudy with Nearby Thunderstorms 63 17.2 63 17.2 100 100 N N/A 29.94 1014 10 16 N/A
7:20 am 07:20 Mostly Cloudy 63 17 63 17 100 100 N N/A 29.97 1015 10 16 N/A
7:53 am 07:53 Cloudy 63 17.2 63 17.2 100 100 NE 5 7 29.97 1015 8 13 N/A
8:33 am 08:33 Cloudy with Thunderstorms 64 17.8 64 17.8 100 100 ENE 6 9 29.94 1014 10 16 N/A
8:53 am 08:53 Cloudy with Thunderstorms 64 17.8 64 17.8 100 100 N N/A 29.99 1016 10 16 N/A
9:00 am 09:00 Windy with Storms Likely 64 18 64 18 100 100 W 26 43 30.06 1018 2 2 N/A
9:08 am 09:08 Cloudy with Strong Thunderstorms 64 18 64 18 100 100 W 12 19 30.06 1018 1 1 N/A
9:20 am 09:20 Cloudy with Strong Thunderstorms 63 17 63 17 100 100 S 8 13 30.06 1018 2 3 N/A
9:44 am 09:44 Cloudy with Thunderstorms 61 16 61 16 100 100 SSW 5 7 30.03 1017 7 11 N/A
9:53 am 09:53 Cloudy with Thunderstorms 61 16.1 61 16.1 100 100 SSW 10 17 30.08 1019 10 16 0.95 24.13
10:05 am 10:05 Cloudy with Thunderstorms 61 16.1 61 16.1 100 100 WSW 9 15 30.09 1019 2 2 0.13 3.30
10:26 am 10:26 Cloudy with Thunderstorms 63 17 63 17 100 100 S 9 15 30.09 1019 3 4 N/A
10:34 am 10:34 Cloudy with Thunderstorms 63 17 63 17 100 100 S 7 11 30.09 1019 4 6 N/A
10:48 am 10:48 Cloudy with Light Rain 63 17 63 17 100 100 N N/A 30.09 1019 10 16 N/A
10:53 am 10:53 Cloudy with Light Rain 62 16.7 62 16.7 100 100 NW 6 9 30.11 1020 10 16 0.40 10.16
11:53 am 11:53 Mostly Cloudy 64 17.8 64 17.8 100 100 W 3 6 30.11 1020 10 16 N/A
12:53 pm 12:53 Mostly Cloudy 67 19.4 66 18.9 97 97 N N/A 30.10 1019 10 16 N/A
1:53 pm 13:53 Sunny 73 22.8 66 18.9 79 79 ESE 8 13 30.06 1018 10 16 N/A
2:53 pm 14:53 Sunny 76 24.4 67 19.4 74 74 S 7 11 30.04 1017 10 16 N/A
3:53 pm 15:53 Sunny 78 25.6 69 20.6 74 74 SSE 5 7 30.01 1016 10 16 N/A
4:53 pm 16:53 Sunny 80 26.7 67 19.4 64 64 SSE 8 13 30.00 1016 10 16 N/A
5:53 pm 17:53 Sunny 80 26.7 67 19.4 64 64 SSE 5 7 29.98 1015 10 16 N/A
6:53 pm 18:53 Sunny 80 26.7 66 18.9 62 62 ESE 3 6 29.96 1014 10 16 N/A
7:53 pm 19:53 Sunny 76 24.4 69 20.6 79 79 ENE 3 6 29.93 1014 10 16 N/A
8:53 pm 20:53 Clear 70 21.1 69 20.6 97 97 N N/A 29.94 1014 10 16 N/A
9:53 pm 21:53 Mostly Clear 68 20 68 20 100 100 N N/A 29.96 1015 7 11 N/A
10:53 pm 22:53 Mostly Cloudy 67 19.4 67 19.4 100 100 NNE 3 6 29.96 1015 8 13 N/A
11:53 pm 23:53 Clear with Mist and Fog 66 18.9 66 18.9 100 100 N N/A 29.93 1014 5 8 N/A

Powered by AerisWeather